Theta_e
306 306 309 308 308 296 299 303 296 299 303 302 296 301 302 300 292 292 300 299 300 306 306 314 321 322 321 326 327 328 326 327 329 329 331 332 332 332 332 333 333 333 334 336 338 339 339 341 341 342 343 345 349 349 348 348 349 349 351 352 351 350 350
308 312 311 309 309 306 300 296 297 302 306 305 297 291 295 293 289 292 299 298 297 297 296 309 318 321 322 324 326 327 326 326 327 328 329 331 332 332 333 334 334 334 335 337 338 339 340 340 341 342 343 344 349 351 350 350 351 349 352 352 352 351 351
309 312 310 308 310 309 303 301 306 302 298 294 295 294 290 289 289 289 294 299 299 299 299 306 314 318 320 322 324 325 324 325 326 328 329 330 332 333 333 334 334 334 335 337 337 338 339 341 342 342 343 344 347 352 352 352 352 351 353 355 354 354 353
308 308 306 301 303 310 311 310 302 307 303 297 296 294 294 293 289 291 291 298 295 306 303 308 309 315 321 322 323 324 325 326 326 327 328 328 330 331 333 334 335 335 335 337 338 338 338 340 341 341 342 344 346 350 353 352 354 354 354 355 355 354 354
306 300 304 302 302 300 303 304 300 299 302 305 302 302 296 293 290 289 291 291 295 302 309 310 310 313 320 322 323 324 325 326 328 328 328 329 330 331 333 334 334 335 335 336 338 338 339 340 341 341 342 343 346 350 351 352 353 354 353 354 353 353 354
298 302 309 308 307 306 305 303 300 301 297 294 294 292 302 299 293 290 291 288 296 306 319 317 313 314 321 323 324 324 326 327 328 329 329 329 329 329 331 333 334 335 335 335 337 339 338 339 340 340 342 344 346 349 352 353 352 350 351 353 352 353 352
301 305 310 312 311 313 311 306 303 306 300 299 294 289 296 298 299 303 298 293 298 308 314 319 317 318 322 323 324 325 325 326 325 327 329 332 334 335 333 332 333 334 335 335 336 338 337 339 340 340 342 346 349 350 351 349 349 350 352 353 354 353 351
303 307 311 313 314 312 308 308 308 306 302 304 298 295 300 297 300 294 295 293 298 310 316 321 322 320 321 321 322 324 327 329 331 331 330 331 332 333 335 337 338 338 334 335 335 336 336 337 339 340 345 350 351 351 348 348 349 350 351 352 353 352 350
296 300 303 307 311 311 306 304 306 307 308 311 308 301 303 298 299 300 292 289 296 307 319 321 322 322 323 326 329 330 329 329 330 331 330 331 331 333 334 336 338 339 338 336 334 336 336 337 341 344 347 349 349 348 347 348 350 352 351 353 352 351 350
288 290 292 295 301 303 311 307 305 306 308 310 304 299 300 291 302 303 296 294 300 309 318 319 322 324 325 327 329 331 329 329 329 329 330 330 331 331 332 334 338 338 339 340 341 341 338 341 343 345 346 347 348 348 349 350 350 350 351 352 352 351 350
295 296 299 307 309 305 300 304 304 305 309 313 310 305 301 297 301 302 301 302 302 307 315 318 321 323 324 325 326 327 328 328 329 329 330 330 330 330 331 333 334 336 339 341 345 347 344 342 344 345 345 346 347 347 348 350 350 351 351 352 352 351 350
302 304 304 306 308 304 304 305 305 310 311 314 313 308 305 309 297 294 303 307 305 306 313 315 319 322 323 324 325 326 327 327 329 331 332 336 330 331 332 333 334 334 337 343 348 350 349 346 346 346 347 348 348 348 348 349 350 351 352 352 352 352 351
305 305 306 307 309 306 305 305 309 310 312 314 312 312 314 314 299 297 304 306 307 309 313 317 321 323 323 324 326 327 328 328 329 329 329 328 329 330 332 332 333 334 336 340 347 351 351 349 347 346 346 347 347 348 349 350 351 351 352 352 351 349 348
303 305 305 307 306 306 307 310 311 311 312 313 315 315 316 315 312 312 309 307 308 308 310 316 321 324 326 327 329 328 327 328 328 328 327 327 326 328 331 332 333 334 336 338 341 345 347 347 347 346 345 345 347 347 347 347 348 347 348 347 346 345 345
301 304 306 306 308 307 307 312 313 313 312 314 315 316 317 318 315 315 311 310 309 314 316 316 323 325 329 329 327 326 327 328 329 328 327 326 326 326 328 330 332 333 335 337 340 341 342 343 345 345 344 344 345 345 346 346 346 346 346 344 343 344 345
297 303 304 305 306 309 311 310 311 311 311 310 314 313 318 314 312 314 312 310 311 317 319 323 324 326 326 325 326 327 327 328 329 329 327 326 327 327 328 329 331 333 334 335 337 339 339 340 342 343 343 343 343 343 345 345 346 346 345 343 343 344 346
294 302 303 304 305 304 303 306 309 311 313 315 316 318 319 317 318 313 310 309 317 319 321 320 322 324 324 326 328 327 328 328 329 329 328 328 329 328 328 329 332 333 334 335 336 337 338 339 339 340 341 340 338 337 339 346 347 345 344 343 343 344 346
295 301 303 304 299 293 296 312 316 314 313 315 314 313 316 318 318 315 318 318 321 322 322 319 318 320 324 327 329 331 330 329 330 329 329 329 330 330 330 330 330 332 333 335 336 337 338 339 340 341 341 339 339 340 339 340 342 345 344 343 344 345 347
295 299 300 295 290 293 311 316 316 316 316 316 317 318 318 319 320 319 318 319 320 322 322 322 322 322 324 327 331 332 333 333 331 330 329 329 330 331 330 329 329 329 332 333 335 337 338 340 341 341 341 342 341 340 341 340 342 345 344 344 344 346 348
298 295 294 289 292 305 312 314 316 319 319 317 315 314 317 319 320 320 319 320 322 322 322 324 324 323 325 328 331 331 334 335 332 331 330 331 331 331 331 330 330 331 333 333 335 336 340 342 342 344 344 345 344 343 345 345 345 346 346 346 346 347 348
294 294 294 296 304 305 308 310 313 314 310 312 310 303 310 318 321 322 321 322 322 323 323 323 325 326 325 322 324 330 334 334 335 334 333 333 333 333 333 333 333 333 336 336 338 340 340 345 348 349 349 348 347 347 346 346 347 347 347 346 346 347 347
298 294 291 292 292 291 298 310 315 320 320 320 318 313 307 318 322 324 323 321 323 322 322 323 324 324 318 315 319 325 334 336 335 336 336 335 334 335 335 335 336 337 338 338 341 342 346 350 351 352 352 350 349 348 347 347 346 345 345 344 344 345 345
298 294 289 290 290 294 304 309 315 319 321 321 320 311 304 314 320 323 323 323 323 322 321 322 323 317 313 313 319 327 330 334 336 335 335 335 335 336 336 336 335 336 337 340 343 349 351 350 351 352 352 351 350 348 348 346 345 344 343 343 343 344 344
296 293 291 291 297 298 307 312 316 320 321 322 310 296 298 314 320 323 323 322 324 323 322 323 320 316 311 314 321 328 330 331 336 336 335 335 336 336 337 338 338 338 341 343 345 349 349 349 352 352 352 351 350 348 347 347 345 344 343 344 343 343 344
298 300 293 296 301 311 314 315 318 320 323 315 300 294 304 318 320 322 323 323 324 323 321 321 318 320 323 325 327 329 330 330 333 337 337 336 337 336 337 338 342 340 341 344 347 349 350 351 352 352 352 350 348 348 347 345 345 344 345 345 345 346 345
295 294 293 293 298 309 315 317 318 321 316 302 298 312 321 321 321 322 324 324 325 324 323 321 321 324 327 329 330 329 330 330 333 335 336 337 338 339 341 343 342 341 343 346 348 349 350 352 353 352 351 349 347 347 346 345 345 347 347 347 347 347 346
297 295 293 291 287 303 318 316 316 318 307 308 317 319 321 323 322 323 325 325 324 324 322 324 324 326 327 328 329 330 332 330 333 336 336 337 338 339 341 342 344 346 346 347 348 349 351 352 352 351 350 347 347 346 345 346 350 350 350 350 349 348 347
292 290 291 290 300 310 318 316 309 315 317 320 322 322 319 323 323 323 323 324 325 325 324 324 325 327 327 328 329 330 332 331 335 336 337 338 339 340 342 343 345 348 347 347 347 348 350 351 351 351 349 347 346 345 344 349 351 351 351 350 349 349 349
301 295 299 307 312 316 318 319 319 321 323 323 325 325 323 321 322 325 323 323 325 326 326 326 326 326 327 328 330 330 330 329 334 335 336 337 338 336 335 338 344 348 347 346 347 348 350 350 351 349 349 347 346 344 345 349 350 350 350 350 349 348 348
309 312 312 316 315 315 316 321 324 323 324 325 327 324 322 323 324 325 324 325 326 326 327 326 326 326 328 329 330 330 331 331 334 336 335 334 333 334 334 332 329 329 337 347 347 347 348 350 350 349 349 348 345 345 348 349 349 349 349 348 347 347 347
300 293 309 311 314 316 317 320 323 325 326 324 326 324 324 324 326 326 327 327 327 327 328 329 327 328 329 329 328 328 331 333 333 334 333 333 334 334 333 333 333 331 330 332 344 348 347 349 349 349 349 349 348 348 348 349 349 349 348 347 348 346 345
303 303 309 313 315 317 320 319 318 318 320 322 324 325 325 326 328 328 328 329 328 330 330 331 330 331 332 330 329 331 332 332 332 333 334 334 334 334 333 333 333 332 331 329 329 339 346 347 349 349 349 349 349 349 350 350 349 348 348 347 346 344 344
307 311 313 314 315 316 318 320 321 322 323 323 323 326 327 327 327 327 329 330 329 331 332 333 333 332 332 331 331 331 331 330 330 331 331 333 335 335 333 333 334 332 331 330 330 332 345 348 348 348 349 349 350 349 349 350 349 347 345 347 343 338 338
299 301 306 312 306 306 312 316 322 323 324 325 326 327 327 328 327 326 327 328 330 331 332 333 334 332 333 331 330 330 330 330 331 332 333 334 334 332 333 334 333 333 333 331 330 329 340 348 347 347 347 347 348 349 349 348 347 346 342 338 337 337 337
300 308 312 313 314 314 315 316 320 322 326 328 325 324 325 326 328 328 328 326 327 328 332 335 333 332 334 332 332 331 332 332 333 334 333 332 332 332 334 333 331 332 332 333 332 332 333 343 346 346 345 347 348 350 350 348 344 341 340 339 339 340 341
310 313 313 315 314 314 317 320 322 322 325 327 324 324 325 326 328 328 329 329 327 327 330 332 333 335 334 332 331 330 331 332 330 330 333 334 334 334 335 333 332 333 333 333 333 333 333 340 346 346 346 347 347 347 347 346 344 342 341 341 340 341 342
310 315 316 318 318 319 322 322 322 323 325 326 324 324 325 327 329 329 329 329 330 330 330 330 331 334 333 332 332 330 330 332 333 333 333 333 335 334 334 333 334 333 334 336 338 336 334 335 343 345 345 345 346 346 346 346 345 343 342 342 341 340 342
Wind_Speed
4 1 3 3 1 4 3 0 3 7 6 6 4 2 2 4 4 3 2 5 5 7 3 9 4 5 5 9 8 8 8 9 10 11 12 11 11 10 9 10 8 9 8 9 11 11 11 11 11 12 12 12 12 12 12 12 11 10 11 11 11 10 9
7 9 3 2 2 4 2 1 8 3 1 4 5 5 1 1 2 4 0 1 4 5 5 4 7 6 4 8 8 9 8 10 12 11 12 12 12 11 11 10 8 8 9 10 10 10 11 12 13 12 13 12 11 12 13 13 11 12 11 11 11 10 11
7 11 12 15 14 6 3 7 2 3 2 3 4 3 0 0 1 2 1 4 1 3 3 3 2 5 5 5 6 7 9 10 11 10 10 9 10 9 10 11 11 9 9 10 11 11 11 11 12 12 12 11 10 10 12 14 15 14 12 10 10 9 10
7 4 7 5 11 16 13 9 7 1 4 4 1 3 3 3 2 1 3 2 1 3 3 3 4 4 6 8 7 9 11 11 9 9 10 9 9 9 10 10 11 12 11 11 12 12 12 11 11 10 11 9 12 10 10 8 9 10 12 11 7 4 4
4 5 3 2 5 4 7 8 5 4 2 3 4 1 2 4 4 4 2 1 3 5 4 2 4 5 8 10 11 10 8 9 10 9 10 10 9 10 10 11 11 12 11 10 10 11 11 10 9 9 10 12 12 11 14 14 14 10 6 11 11 7 7
2 3 1 3 3 3 2 2 3 9 8 6 5 8 4 1 4 2 3 2 5 8 1 3 7 6 5 10 11 8 8 9 9 8 8 9 8 9 10 11 10 11 11 10 9 7 6 8 8 10 9 9 10 9 5 6 13 12 10 11 14 11 10
6 8 2 2 3 1 1 1 7 8 3 1 1 3 8 1 1 4 4 4 2 4 2 3 6 9 8 6 7 8 6 6 6 5 3 2 3 4 8 11 11 11 10 9 10 11 10 11 10 10 7 6 7 10 13 11 12 13 15 13 10 9 10
6 5 1 2 7 5 9 9 8 8 6 6 3 6 5 2 3 2 1 1 3 5 2 2 1 3 4 3 3 5 3 3 4 5 6 6 5 4 5 2 3 2 1 3 6 8 8 8 7 8 9 10 11 12 13 12 14 14 9 7 7 9 10
7 8 7 3 4 9 4 6 9 10 12 14 7 2 2 5 4 9 4 2 2 4 1 3 3 7 5 5 4 3 6 4 5 6 5 5 4 5 5 5 6 7 8 6 3 5 8 8 11 11 11 10 11 11 10 12 13 12 11 9 10 10 10
3 4 3 3 7 7 5 6 12 10 11 13 9 6 2 4 6 6 4 4 7 3 2 1 5 8 5 3 4 3 4 5 6 6 5 5 6 5 4 4 6 9 8 7 8 7 7 11 12 11 10 9 9 10 10 11 10 9 10 10 11 10 9
3 5 4 4 3 2 1 12 12 7 6 3 2 1 4 2 2 2 6 8 5 3 3 1 1 5 8 5 4 7 6 6 6 6 6 5 6 5 5 5 4 5 9 10 10 10 9 8 10 10 11 10 9 8 9 9 9 10 9 10 10 11 10
2 3 3 3 3 1 6 6 5 7 6 5 7 6 1 3 3 2 5 5 8 7 5 4 5 4 5 5 5 4 7 5 6 6 6 7 7 5 5 6 8 8 7 10 12 12 12 7 6 8 8 10 11 11 12 10 9 8 8 9 9 9 10
3 4 6 7 2 3 5 3 3 5 3 6 6 3 2 0 2 3 5 4 11 10 9 11 11 12 12 8 4 4 6 6 5 6 6 5 5 6 8 6 7 7 8 8 10 13 13 11 6 3 5 7 6 7 7 7 7 9 9 9 6 4 5
4 6 7 8 3 5 1 5 5 4 3 4 3 3 2 4 4 2 1 1 3 4 6 5 9 3 6 6 5 6 7 8 7 7 6 4 3 4 8 8 7 7 8 9 9 10 11 12 11 7 1 2 5 9 6 5 5 3 6 5 6 6 6
4 5 6 5 1 2 6 8 9 9 3 3 3 5 5 2 6 12 8 12 8 5 8 5 1 3 4 6 7 7 6 7 8 8 7 4 4 3 5 7 8 8 8 8 9 11 10 8 9 8 8 4 5 1 4 5 5 5 7 7 7 7 7
6 4 4 7 6 7 9 8 11 13 10 3 5 5 6 5 5 7 8 13 8 12 14 2 4 5 9 9 6 5 4 5 7 9 8 7 5 6 5 6 8 8 9 9 10 11 9 9 8 9 10 8 7 8 2 5 5 6 7 8 8 7 7
2 5 5 7 3 2 3 6 7 10 10 3 3 2 9 10 2 9 10 3 5 8 8 2 0 3 4 4 6 4 3 4 4 8 8 7 6 7 7 8 7 6 8 9 8 8 10 9 7 3 8 12 11 7 10 5 4 6 7 7 7 7 7
2 5 7 4 1 2 2 4 3 4 6 8 7 6 7 7 7 4 3 1 4 8 10 9 5 2 7 9 7 5 9 7 3 4 5 7 7 5 5 5 6 7 5 5 7 5 7 9 9 8 6 8 11 12 7 5 4 4 7 6 6 7 6
1 3 5 3 0 2 1 5 7 6 6 6 2 1 6 8 7 6 10 11 11 10 6 5 6 7 6 3 5 5 5 6 7 7 6 6 7 8 7 4 3 3 4 3 4 4 4 6 8 9 7 7 9 11 9 6 7 5 6 7 6 6 7
1 3 1 0 2 2 4 7 7 8 3 4 8 4 9 11 8 5 7 8 8 8 11 11 8 6 3 2 1 5 6 9 10 8 9 8 8 8 8 8 7 6 5 4 4 3 1 3 6 6 9 8 10 9 7 8 5 5 6 7 7 6 7
1 2 2 2 3 4 4 5 3 8 4 6 4 3 4 8 10 12 11 10 7 9 11 10 11 12 3 4 1 1 6 7 9 12 11 11 11 7 4 3 3 3 3 3 5 5 2 2 5 6 9 10 10 7 7 6 6 6 6 7 6 6 6
2 3 0 3 1 2 5 4 5 6 6 4 3 0 2 3 11 12 12 12 8 9 11 13 13 8 5 4 0 2 3 4 6 2 3 4 3 4 5 5 5 5 5 5 4 3 4 5 6 8 10 10 9 8 7 6 6 6 6 6 5 6 6
2 3 3 1 2 4 4 7 8 9 8 9 4 2 3 1 8 10 10 10 6 7 9 13 10 8 2 2 1 8 8 6 2 6 3 3 3 3 4 7 8 6 6 5 4 4 8 9 8 9 10 10 9 8 7 6 6 6 6 5 5 6 5
1 3 2 0 1 3 3 5 9 12 11 9 3 2 2 3 10 9 8 8 7 7 6 7 7 5 2 2 5 12 13 11 6 6 9 6 6 4 4 2 4 7 5 3 2 7 9 8 9 9 9 9 8 8 7 6 6 5 5 4 3 3 3
2 4 0 1 0 1 5 9 12 12 9 2 2 5 2 8 12 12 10 9 7 4 5 4 7 5 4 8 10 12 12 11 6 2 4 7 8 8 6 5 4 6 5 3 5 8 8 8 8 8 8 8 7 6 6 5 5 4 3 3 3 4 4
3 1 1 2 1 1 4 11 10 8 3 0 4 1 3 7 10 11 9 9 9 8 5 3 4 10 11 10 9 10 11 10 6 4 7 7 5 4 4 6 5 5 4 4 7 7 7 8 8 7 7 7 6 6 6 4 3 4 5 4 5 5 5
0 1 1 1 1 2 4 13 4 7 3 3 5 8 9 5 8 10 9 8 9 8 11 9 8 10 12 10 10 10 10 8 5 7 10 10 9 9 8 6 5 6 6 8 9 8 8 8 7 7 8 7 6 5 5 4 4 5 5 5 5 4 3
1 0 1 1 2 4 2 4 1 2 0 4 5 4 9 10 7 8 8 9 7 9 8 11 11 10 10 11 9 9 8 1 6 4 5 7 8 9 7 7 6 6 8 8 8 8 7 7 7 7 8 7 5 5 5 5 5 5 4 4 4 3 3
1 2 3 3 2 3 2 1 3 4 5 4 6 4 6 9 8 5 7 9 9 8 8 8 6 8 8 10 11 6 7 2 6 5 4 7 10 14 15 15 7 3 8 9 9 8 8 9 7 7 6 7 5 6 4 5 6 5 5 4 4 4 4
3 5 5 3 4 3 2 2 3 5 6 7 6 5 7 6 6 5 7 7 7 8 7 6 5 6 9 9 8 6 2 12 11 12 13 13 14 15 13 12 14 18 15 2 8 8 8 8 8 6 6 6 7 6 5 5 5 6 6 6 5 6 6
3 3 1 2 4 4 2 2 3 5 7 6 5 7 6 8 5 7 4 2 6 7 5 5 6 8 8 8 6 6 7 11 9 8 10 11 14 14 14 15 15 10 4 15 4 7 7 7 8 8 8 7 6 6 7 7 6 6 6 6 6 5 5
2 4 4 6 6 4 3 3 2 5 7 8 7 7 9 7 1 4 4 3 6 4 4 5 6 8 8 5 3 4 7 10 11 10 8 6 7 6 9 11 13 14 12 7 17 7 6 7 8 9 9 9 8 8 8 7 7 6 6 5 6 5 6
4 3 3 4 7 3 1 3 5 6 7 8 10 9 10 11 3 4 2 2 4 4 6 7 7 8 7 5 3 5 6 9 9 10 12 11 8 6 8 8 8 8 11 10 6 18 3 7 9 9 10 9 8 8 7 6 6 6 4 3 3 3 3
3 1 4 4 5 6 8 6 4 5 7 6 7 9 11 13 7 3 5 4 2 5 5 6 6 7 3 5 5 2 6 10 12 13 14 14 15 11 10 10 10 11 10 12 6 12 11 6 8 9 9 8 7 8 7 6 5 5 4 5 5 5 4
4 5 5 2 3 6 7 6 6 8 5 4 6 9 11 13 10 4 4 12 9 4 4 2 4 2 1 7 7 3 4 5 4 11 12 12 12 14 14 13 11 12 10 12 10 3 14 4 6 7 7 6 5 4 4 5 7 7 7 7 6 6 6
5 6 8 5 2 4 7 8 8 8 4 3 7 8 9 9 12 8 5 1 6 7 6 2 1 2 6 5 5 6 5 7 8 10 5 5 5 9 10 11 10 10 10 9 12 10 7 10 5 7 8 6 7 7 7 7 7 7 7 8 7 6 6
5 4 4 4 5 7 7 7 8 8 4 3 6 8 9 8 11 10 3 1 2 4 5 4 1 3 5 8 7 5 6 8 9 3 3 9 9 5 7 9 7 9 9 8 9 10 6 11 2 8 9 6 6 7 7 7 8 8 7 8 8 6 6
Wind_Direction
1 6 358 322 131 216 263 87 227 218 177 162 234 314 233 99 49 249 210 332 314 301 343 356 25 57 115 138 149 145 145 154 162 179 183 183 184 187 186 186 180 178 175 175 168 169 169 168 169 173 172 168 170 169 174 175 177 177 179 181 180 180 179
330 339 5 61 263 205 100 194 241 254 171 152 146 202 321 93 171 256 319 167 291 25 299 335 8 75 116 138 148 147 149 160 176 184 183 180 183 184 183 185 184 181 182 178 173 172 171 172 172 175 174 170 169 171 172 172 174 181 185 182 180 179 179
344 341 23 15 352 6 274 255 211 92 328 346 310 100 190 135 252 253 322 250 254 150 257 338 277 145 151 143 134 143 163 175 186 184 181 176 178 176 181 185 188 189 183 183 177 179 178 175 173 174 173 167 168 170 173 173 179 183 181 185 184 180 179
328 16 43 29 324 334 347 356 351 275 126 167 242 212 178 136 234 55 293 26 219 234 205 182 219 259 165 158 154 177 175 182 182 185 185 178 179 180 186 191 193 193 191 185 179 176 175 176 174 172 167 166 172 162 161 183 183 175 180 181 150 92 40
10 4 16 20 318 314 320 344 328 329 293 216 136 264 169 178 176 173 180 299 287 267 216 224 229 204 201 164 180 184 178 179 183 185 188 184 176 184 192 195 196 198 193 185 181 180 178 171 167 162 166 173 172 163 175 181 181 170 115 61 70 109 126
58 219 150 288 274 253 283 292 297 329 327 310 276 268 326 96 99 190 102 252 275 275 322 239 186 205 200 200 172 167 183 184 183 186 193 187 176 186 191 195 198 202 199 187 171 163 150 152 154 165 170 167 165 170 143 83 61 57 102 159 173 168 133
282 295 274 227 246 263 65 53 7 4 341 38 17 120 266 312 331 111 139 133 263 248 287 310 212 170 203 192 158 168 185 184 182 193 175 81 103 151 192 200 203 200 195 185 166 160 162 167 163 154 144 124 103 94 101 126 145 163 175 181 164 140 150
299 290 273 123 31 12 10 353 350 4 334 275 226 208 192 130 285 28 26 68 254 286 300 310 260 160 139 57 86 134 129 119 93 82 90 107 87 57 62 93 142 144 116 133 145 145 149 152 136 101 98 115 131 147 153 149 157 169 169 168 138 149 159
339 346 1 11 6 46 38 314 322 342 341 344 309 116 52 108 229 143 110 207 277 275 10 340 81 103 102 96 74 126 137 107 87 75 69 69 81 69 60 85 112 111 109 107 123 161 148 110 104 125 135 142 151 154 154 157 165 161 168 170 162 173 177
13 353 23 325 311 341 309 289 321 332 0 352 345 48 17 83 306 70 76 277 249 281 20 343 103 106 85 83 128 99 109 122 97 78 65 63 68 61 63 60 86 106 113 108 98 86 108 130 139 144 148 152 157 157 168 170 159 168 177 171 177 175 173
186 210 226 235 157 323 27 302 315 335 5 348 320 232 72 86 167 143 207 204 218 236 188 251 102 128 138 150 167 149 112 76 78 88 82 74 66 56 46 55 46 80 86 93 94 92 112 145 144 148 153 161 156 153 171 179 174 171 172 174 181 179 177
186 220 231 249 129 245 262 271 305 15 10 342 25 46 284 231 80 313 258 207 169 219 198 210 172 187 166 169 168 109 74 84 101 104 103 93 79 76 75 67 73 78 92 95 95 102 113 128 136 151 158 160 164 168 173 180 171 166 171 177 185 184 177
356 345 324 328 273 209 257 291 11 36 6 21 32 344 307 294 124 206 270 231 168 204 195 196 188 174 176 169 153 131 129 121 113 102 93 96 108 112 97 90 83 83 79 83 98 108 114 119 116 124 151 157 162 168 167 171 168 176 173 173 166 153 158
348 328 321 313 10 322 28 13 8 10 18 36 356 319 306 94 63 305 5 321 164 40 326 222 213 197 129 132 131 126 132 138 138 120 117 122 131 117 118 115 108 106 104 100 100 104 115 126 127 118 48 301 189 161 157 146 144 109 119 130 126 124 133
320 304 311 312 78 235 68 12 7 355 333 10 354 297 327 39 34 10 31 50 359 319 333 256 95 125 118 113 140 148 150 147 140 129 130 143 147 157 124 122 127 126 118 114 116 117 119 121 126 124 117 90 345 347 109 113 116 128 127 122 119 127 134
315 303 343 338 355 74 64 26 359 353 338 14 348 1 330 45 38 356 18 37 353 322 334 39 126 145 151 147 136 138 165 175 144 132 147 156 170 168 152 137 138 138 136 139 139 138 140 141 139 136 121 100 65 352 338 124 131 128 123 126 130 134 141
271 279 336 316 342 55 42 348 339 327 312 308 258 353 14 19 6 59 37 357 315 299 317 24 145 158 105 134 150 154 170 191 156 142 154 170 176 176 162 155 151 152 151 151 153 151 147 149 134 122 128 121 111 78 340 326 111 115 120 126 125 126 132
252 302 330 338 35 134 204 230 284 293 317 342 9 13 343 15 43 99 90 13 308 348 1 3 315 269 193 183 194 169 156 157 148 130 153 183 180 173 174 166 160 156 159 157 154 182 159 140 128 131 115 112 118 118 119 313 327 116 121 121 124 127 128
273 307 357 33 73 223 265 307 301 308 302 2 334 71 3 13 31 38 30 9 3 353 334 311 301 291 265 249 148 115 135 144 152 163 174 183 185 184 173 175 176 185 165 155 134 148 139 128 124 118 115 122 124 120 129 175 220 145 122 125 128 132 130
28 30 17 93 229 248 296 298 296 298 304 15 1 324 6 7 23 7 38 10 351 339 339 340 332 326 287 68 67 149 165 158 154 161 184 192 189 185 186 172 175 172 161 165 144 113 60 92 106 111 126 135 120 118 145 193 172 134 128 125 130 131 131
188 187 145 176 270 323 331 357 348 14 358 347 22 324 313 353 7 11 349 356 359 337 349 343 341 339 334 77 13 311 166 170 172 173 185 185 192 185 152 135 141 118 93 83 91 88 61 57 106 129 127 112 111 134 163 167 135 123 119 120 126 127 127
124 124 38 3 21 252 271 237 274 328 337 330 319 271 288 350 6 5 358 343 335 351 349 350 342 338 83 87 333 303 260 189 180 208 183 170 125 102 112 94 100 113 98 94 99 124 120 104 122 123 121 125 137 145 140 133 120 114 114 121 124 125 132
76 61 117 180 166 250 231 291 312 317 315 326 328 74 298 319 16 354 349 342 347 5 1 340 350 11 145 198 343 358 345 325 219 151 159 123 96 111 137 142 136 137 129 126 151 129 116 121 131 129 128 132 130 128 130 126 123 123 129 134 140 140 142
79 138 95 219 210 246 276 301 317 314 313 324 65 42 273 319 353 338 339 332 346 345 8 345 345 26 340 295 310 329 324 317 287 179 150 135 128 126 131 129 149 131 124 131 139 124 129 135 137 127 125 122 125 127 126 128 129 138 144 144 128 111 97
41 81 283 359 345 344 343 319 311 311 308 334 95 200 245 328 327 322 321 321 330 356 2 27 344 296 269 272 292 309 311 320 301 286 118 137 149 148 148 146 150 128 131 135 133 135 137 134 126 121 122 121 123 124 123 124 142 138 123 102 94 96 92
17 310 118 210 234 233 283 319 321 311 348 218 218 241 303 305 307 311 314 318 336 351 355 337 296 293 302 304 311 313 310 299 269 190 133 126 120 120 133 149 143 132 141 129 121 117 129 127 123 122 121 118 119 123 124 132 127 112 113 113 113 118 128
52 41 68 9 315 267 14 327 338 16 70 281 283 310 309 301 304 312 325 343 343 2 334 330 318 315 317 323 320 312 310 294 207 182 152 147 147 144 150 149 159 147 137 132 127 129 132 128 125 126 122 123 128 121 125 134 129 130 129 132 134 135 141
148 298 149 195 202 254 3 26 48 317 121 271 297 318 302 310 313 327 333 331 347 342 333 325 324 319 316 317 320 315 323 255 168 161 145 136 137 139 150 156 159 144 133 126 125 129 131 128 130 131 130 130 129 126 130 136 128 128 128 132 135 146 159
150 220 232 253 264 267 266 228 231 251 259 263 275 268 272 293 309 335 323 315 329 334 328 319 310 310 311 304 296 301 296 139 127 116 77 66 60 49 31 3 357 117 133 131 127 126 132 130 131 130 129 127 124 125 138 130 136 136 141 146 158 172 179
270 258 237 307 309 284 292 260 242 254 279 270 254 274 299 284 293 315 306 310 316 322 326 318 301 289 297 300 296 309 81 97 94 103 104 104 100 95 90 71 35 360 338 77 123 130 133 131 128 128 124 124 128 140 139 138 143 148 150 158 167 178 178
31 311 346 300 290 306 324 270 274 268 260 272 282 288 276 279 309 316 307 287 302 303 308 293 288 291 292 291 306 341 47 75 69 71 100 111 120 129 131 135 132 129 19 331 329 137 131 126 124 124 124 124 131 136 143 151 153 155 161 166 176 175 180
198 247 301 299 296 278 252 225 267 292 294 294 289 273 271 271 275 289 284 285 290 293 298 302 299 292 285 306 3 24 53 79 82 73 47 67 100 119 132 138 132 124 105 45 327 317 117 122 121 126 126 132 139 144 148 155 156 157 165 174 178 183 183
279 288 292 301 317 308 315 275 248 251 262 285 295 290 293 299 6 345 296 208 279 314 309 309 316 303 307 2 44 95 95 88 88 96 101 86 62 60 62 45 44 61 93 92 354 302 239 129 129 129 134 139 144 148 155 158 161 167 170 172 161 167 179
331 263 286 354 3 319 316 318 290 290 290 282 291 305 311 309 331 60 332 302 325 312 310 309 319 325 350 56 313 112 119 126 129 130 132 136 128 121 112 112 114 107 108 104 92 304 279 150 136 134 136 141 151 157 163 157 133 115 112 103 97 98 100
260 272 276 259 223 264 258 267 303 305 298 303 321 317 309 308 315 75 17 328 341 327 300 312 315 334 66 149 185 220 134 126 176 150 137 122 125 135 142 135 136 132 136 123 117 38 304 286 120 129 130 130 123 119 118 110 116 118 116 103 93 87 84
264 269 270 273 250 259 285 291 295 291 287 299 317 305 304 310 312 335 86 241 290 296 285 244 229 238 134 141 153 135 94 70 30 5 31 95 124 140 134 127 132 131 134 122 116 107 327 297 108 102 100 102 107 104 101 110 113 114 112 108 104 103 100
247 260 273 272 262 271 273 278 277 274 270 297 303 301 300 319 306 304 17 321 235 264 277 281 263 247 186 164 159 136 110 97 106 134 217 155 155 135 122 116 124 124 117 99 80 83 85 302 62 94 93 91 96 98 103 110 114 110 112 111 115 111 107